Dewpoint
63 63 64 62 61 58 58 55 53 52 51 53 53 54 54 55 55 56 57 59 59 59 58 58 57 57 56 55 55 54 53 53 53 53 53 53 52 52 52 51 51 49 49
63 63 63 61 59 58 55 54 52 51 51 53 53 54 54 55 55 56 56 57 59 59 59 57 57 56 56 55 55 54 54 53 53 53 53 52 52 53 51 50 50 49 48
63 63 62 59 58 55 52 51 51 50 51 53 53 53 54 55 55 55 56 56 57 58 58 59 58 56 56 55 55 54 54 54 53 53 53 53 53 52 51 49 49 48 48
63 61 60 58 56 53 51 51 51 50 51 52 53 53 53 54 55 55 55 55 55 56 58 59 59 58 56 55 55 55 55 54 54 54 53 53 53 52 51 50 50 49 48
61 60 59 56 55 52 50 50 52 50 50 52 53 53 53 53 54 55 54 54 55 55 55 58 58 58 58 57 56 56 56 55 55 55 54 54 54 54 52 51 50 49 49
61 60 57 55 53 50 49 51 52 52 51 52 52 52 53 53 54 54 54 54 54 54 54 54 56 56 57 58 57 57 57 56 56 56 55 55 55 55 54 53 52 50 49
61 58 56 55 53 48 49 52 52 51 51 51 49 49 49 53 53 53 53 53 53 53 53 53 54 54 55 58 58 57 57 57 57 57 57 56 56 57 57 56 54 53 52
61 59 55 55 52 49 50 53 52 51 51 50 48 47 45 46 50 51 53 53 53 53 53 53 53 54 53 53 55 58 57 57 58 58 59 58 58 58 57 58 56 54 54
62 60 56 55 52 51 49 53 53 52 50 49 48 47 44 43 45 47 50 52 52 52 52 52 52 53 53 53 54 55 56 57 58 58 59 59 59 59 58 58 58 57 56
62 61 58 55 53 53 50 53 54 53 51 48 48 47 47 46 44 42 46 48 52 52 52 52 52 52 52 53 53 53 52 53 55 58 58 59 59 59 59 59 58 58 58
61 61 60 57 56 54 56 54 55 54 51 49 48 49 49 49 48 44 42 43 46 47 51 52 52 52 52 52 52 52 51 50 51 55 57 58 58 58 59 59 59 59 58
61 61 61 60 59 58 57 56 55 54 53 51 51 49 49 48 48 47 46 45 45 46 46 48 51 52 52 53 53 52 51 50 50 52 54 56 57 58 58 58 59 59 58
60 60 60 60 60 59 58 56 56 55 54 53 54 52 51 50 50 50 50 48 47 48 48 48 47 48 50 52 52 51 52 49 49 50 52 53 54 55 56 57 57 58 58
60 59 59 59 60 58 57 57 56 56 56 56 55 55 54 53 52 50 49 50 47 47 49 48 50 48 48 48 49 49 50 48 48 48 49 50 51 52 53 53 54 55 56
59 59 58 59 59 58 58 57 57 57 57 56 56 55 55 55 54 54 53 51 50 48 47 49 49 51 50 49 49 50 49 49 47 48 47 47 49 50 50 51 51 52 53
58 58 58 58 58 58 58 58 57 57 56 56 56 55 55 56 56 55 55 54 53 51 49 50 50 50 52 52 52 51 52 51 47 45 44 45 45 46 46 46 47 48 49
58 58 57 57 57 57 57 57 57 56 55 55 55 55 54 55 55 55 55 55 54 54 51 51 52 52 50 49 47 46 46 45 45 42 43 43 42 42 42 42 42 42 43
57 57 57 57 57 56 56 56 55 56 55 55 55 54 54 53 54 54 54 54 53 53 53 52 53 46 41 42 42 40 40 37 38 40 40 38 38 38 40 40 40 40 41
56 56 56 56 56 56 56 56 56 55 55 55 54 53 49 48 49 47 47 47 46 47 46 46 44 41 39 36 37 36 37 35 35 38 34 34 34 35 35 35 35 35 35
55 55 55 55 56 56 56 55 55 54 52 45 42 40 38 39 40 41 40 40 41 41 40 39 37 35 34 34 34 30 30 30 31 32 30 31 30 33 33 30 29 28 33
55 55 54 54 54 54 53 54 53 51 42 39 37 36 36 36 36 36 35 35 36 36 34 33 32 31 29 29 27 28 26 27 29 27 26 25 28 29 25 23 23 24 27
55 54 51 48 46 44 40 44 46 43 39 36 35 34 34 34 33 33 33 32 32 32 30 29 28 27 26 27 27 25 23 21 21 27 22 20 26 23 20 16 20 21 26
45 42 41 40 38 39 39 39 38 37 35 34 33 33 33 33 32 31 32 31 32 31 29 29 24 24 22 22 22 20 20 19 17 21 19 17 20 19 16 14 18 22 22
39 37 36 36 35 35 36 35 34 33 32 32 32 32 32 31 31 30 28 28 28 28 27 26 24 22 22 20 19 18 18 17 16 19 15 12 15 12 11 12 17 20 19
36 34 34 33 33 33 34 33 32 30 29 28 29 29 29 30 31 30 26 25 25 23 21 22 21 20 18 17 16 14 11 10 8 7 14 10 11 10 10 11 15 16 16
33 33 32 32 32 31 33 32 30 28 27 27 28 29 29 28 27 26 24 22 19 17 17 15 14 13 12 12 14 13 11 9 8 5 12 9 9 9 8 11 9 11 6
Lifted_Index
1 0 0 0 1 2 3 3 4 4 4 4 4 4 4 4 4 5 5 5 5 5 5 6 6 7 7 7 7 7 7 7 7 7 7 7 7 8 8 9 9 10 10
1 0 0 1 1 3 4 4 4 4 4 4 4 4 4 4 4 5 5 5 5 5 5 6 6 6 7 7 7 7 7 7 7 7 7 7 7 8 8 9 10 10 10
1 1 1 1 2 4 5 5 5 4 4 4 4 4 4 4 4 5 5 5 5 5 5 5 6 6 6 7 7 7 7 6 6 6 7 7 7 8 8 9 10 10 10
1 1 1 1 2 5 7 6 5 5 4 4 4 3 4 4 4 5 5 5 6 6 6 5 6 6 6 6 6 6 6 6 6 6 6 6 7 7 8 9 10 10 10
1 1 1 1 3 6 8 8 7 5 4 4 4 4 4 4 4 5 5 5 6 6 6 6 6 6 6 6 5 5 5 5 5 5 5 6 6 6 7 8 9 10 10
1 1 2 1 3 7 9 9 7 5 4 4 4 4 4 4 4 5 5 5 6 6 6 6 6 6 6 5 5 4 4 3 3 4 4 4 5 5 6 7 8 9 9
2 2 2 1 3 7 9 8 7 5 4 4 4 4 4 4 4 5 5 5 5 5 6 6 6 6 6 5 4 3 3 2 2 2 3 3 3 4 5 6 7 8 8
2 2 2 2 3 7 9 8 6 5 4 4 4 4 4 5 5 5 5 5 5 5 5 5 5 6 6 5 4 3 2 2 2 2 1 2 2 3 4 5 5 6 7
2 2 2 2 3 6 8 7 5 5 4 4 4 4 5 5 5 5 5 5 5 5 5 5 5 5 5 4 4 3 3 2 2 2 1 1 2 2 3 3 4 4 5
1 1 1 1 2 5 6 6 5 4 4 4 4 5 5 6 6 6 5 5 5 5 5 5 5 4 4 4 3 3 3 3 3 2 2 2 2 2 2 2 3 3 4
0 0 1 1 2 4 5 5 4 4 3 3 4 4 5 6 6 5 5 5 5 5 5 5 4 4 4 3 3 3 2 2 3 3 3 3 3 2 2 2 2 2 3
0 0 0 0 1 3 4 4 4 3 3 3 3 4 5 6 5 5 5 5 5 5 5 5 4 4 3 3 3 2 2 2 2 3 3 3 3 3 3 2 2 2 2
0 0 0 0 1 2 3 3 4 3 3 3 3 4 5 5 5 4 4 4 4 4 4 4 4 3 3 3 3 2 2 2 2 2 2 3 3 3 3 3 3 3 3
1 1 0 0 1 1 2 3 3 3 3 3 3 3 4 5 4 4 4 4 4 4 3 3 3 3 3 3 2 2 2 2 2 2 2 2 2 3 3 3 3 3 3
1 1 1 1 1 1 2 2 3 3 3 3 3 3 4 4 4 3 3 3 3 3 3 2 2 2 2 2 2 2 2 2 2 2 2 2 3 3 3 3 3 4 4
2 2 2 1 1 1 2 2 2 2 2 3 3 3 4 4 4 3 3 3 2 3 3 2 2 2 2 2 2 1 1 1 2 2 2 3 3 3 4 4 4 5 5
1 2 2 2 1 1 2 2 2 2 2 3 3 3 4 4 4 3 3 3 2 3 3 2 2 1 1 1 1 1 1 2 2 3 3 4 4 5 5 6 6 7 7
1 2 2 2 2 2 1 1 1 2 2 2 3 3 3 3 3 3 3 2 2 2 2 2 2 1 1 1 1 2 2 3 4 5 5 6 7 7 8 8 9 9 9
2 2 2 2 2 2 2 1 1 1 2 2 2 3 3 3 3 3 2 2 2 2 2 2 2 2 2 3 3 3 3 4 6 8 9 10 11 11 12 12 13 13 13
2 2 2 2 2 2 2 1 1 2 2 2 2 3 3 3 3 2 2 2 2 2 2 2 2 2 3 4 4 4 4 6 8 11 12 13 14 15 16 17 17 17 17
2 2 2 2 2 2 2 2 2 2 3 3 3 3 3 3 2 2 2 2 2 3 3 3 3 3 4 5 6 6 7 8 11 14 15 16 18 19 20 21 21 21 22
2 2 2 2 2 2 2 2 2 3 3 3 3 3 3 2 2 2 3 4 5 5 5 5 5 5 6 8 9 10 11 12 14 18 19 19 21 22 23 24 24 24 25
1 2 2 2 2 2 2 2 2 2 2 2 2 2 2 3 4 5 6 8 8 9 9 9 9 10 12 14 16 16 17 18 19 22 22 22 23 24 25 26 26 27 27
1 2 2 2 2 2 1 1 1 2 2 2 2 3 4 5 7 9 9 10 11 12 14 15 16 18 19 21 22 22 22 22 23 24 24 23 24 25 26 28 28 28 28
1 1 2 2 2 1 1 1 1 1 2 2 4 6 8 9 10 11 11 11 13 16 20 22 23 24 25 25 26 25 24 23 22 24 25 25 25 26 27 28 29 29 29
1 1 2 2 1 1 1 1 1 1 2 3 6 9 11 12 12 13 13 13 15 19 22 25 25 26 26 27 27 26 25 23 22 23 26 26 26 26 27 29 30 29 29